Time,TemperatureF,DewpointF,PressureIn,WindDirection,WindDirectionDegrees,WindSpeedMPH,WindSpeedGustMPH,Humidity,HourlyPrecipIn,Conditions,Clouds,dailyrainin,SoftwareType,DateUTC
2013-05-04 00:01:00,38.3,33.9,30.02,ESE,112,0.0,0.0,84,0.00,,,0.00,WUHU21636XXSP,2013-05-04 05:01:00,
2013-05-04 00:06:00,38.3,33.9,30.02,ENE,67,0.0,0.0,84,0.00,,,0.00,WUHU21636XXSP,2013-05-04 05:06:00,
2013-05-04 00:11:00,38.3,33.9,30.02,SE,135,0.0,0.0,84,0.00,,,0.00,WUHU21636XXSP,2013-05-04 05:11:00,
2013-05-04 00:16:00,38.3,33.9,30.02,North,0,0.0,0.0,84,0.00,,,0.00,WUHU21636XXSP,2013-05-04 05:16:00,
2013-05-04 00:21:00,38.1,33.7,30.02,NE,45,0.0,0.0,84,0.00,,,0.00,WUHU21636XXSP,2013-05-04 05:21:00,
2013-05-04 00:26:00,38.1,33.7,30.02,NE,45,0.0,0.0,84,0.00,,,0.00,WUHU21636XXSP,2013-05-04 05:26:00,
2013-05-04 00:31:00,38.1,33.7,30.02,ESE,112,0.0,0.0,84,0.00,,,0.00,WUHU21636XXSP,2013-05-04 05:31:00,
2013-05-04 00:36:00,38.1,33.7,30.02,ENE,67,0.0,0.0,84,0.00,,,0.00,WUHU21636XXSP,2013-05-04 05:36:00,
2013-05-04 00:41:00,38.1,33.7,30.02,East,90,0.0,0.0,84,0.00,,,0.00,WUHU21636XXSP,2013-05-04 05:41:00,
2013-05-04 00:46:00,38.1,33.7,30.02,ESE,112,0.0,0.0,84,0.00,,,0.00,WUHU21636XXSP,2013-05-04 05:46:00,
2013-05-04 00:51:00,38.1,33.7,30.03,ENE,67,0.0,0.0,84,0.00,,,0.00,WUHU21636XXSP,2013-05-04 05:51:00,
2013-05-04 00:56:00,38.1,33.7,30.02,ENE,67,0.0,0.0,84,0.00,,,0.00,WUHU21636XXSP,2013-05-04 05:56:00,
2013-05-04 01:01:00,38.1,33.7,30.02,ESE,112,0.0,0.0,84,0.00,,,0.00,WUHU21636XXSP,2013-05-04 06:01:00,
2013-05-04 01:06:00,38.1,33.7,30.02,SE,135,0.0,0.0,84,0.00,,,0.00,WUHU21636XXSP,2013-05-04 06:06:00,
2013-05-04 01:11:00,38.1,33.7,30.02,WSW,247,0.0,0.0,84,0.00,,,0.00,WUHU21636XXSP,2013-05-04 06:11:00,
2013-05-04 01:16:00,38.1,33.7,30.02,ESE,112,0.0,0.0,84,0.00,,,0.00,WUHU21636XXSP,2013-05-04 06:16:00,
2013-05-04 01:21:00,38.1,33.7,30.02,ESE,112,0.0,0.0,84,0.00,,,0.00,WUHU21636XXSP,2013-05-04 06:21:00,
2013-05-04 01:26:00,38.1,33.7,30.02,WSW,247,0.0,0.0,84,0.00,,,0.00,WUHU21636XXSP,2013-05-04 06:26:00,
2013-05-04 01:31:00,38.1,33.7,30.02,SSW,202,0.0,0.0,84,0.00,,,0.00,WUHU21636XXSP,2013-05-04 06:31:00,
2013-05-04 01:36:00,38.3,33.9,30.02,SSW,202,0.0,0.0,84,0.00,,,0.00,WUHU21636XXSP,2013-05-04 06:36:00,
2013-05-04 01:41:00,38.3,33.9,30.02,SSW,202,0.0,0.0,84,0.00,,,0.00,WUHU21636XXSP,2013-05-04 06:41:00,
2013-05-04 01:46:00,38.4,34.0,30.02,SSW,202,0.0,0.0,84,0.00,,,0.00,WUHU21636XXSP,2013-05-04 06:46:00,
2013-05-04 01:51:00,38.4,34.0,30.03,SSW,202,0.0,0.0,84,0.00,,,0.00,WUHU21636XXSP,2013-05-04 06:51:00,
2013-05-04 01:56:00,38.4,34.0,30.03,SSW,202,0.0,0.0,84,0.00,,,0.00,WUHU21636XXSP,2013-05-04 06:56:00,
2013-05-04 02:01:00,38.3,33.9,30.03,SSW,202,0.0,0.0,84,0.00,,,0.00,WUHU21636XXSP,2013-05-04 07:01:00,
2013-05-04 02:06:00,38.4,34.0,30.03,SSW,202,0.0,0.0,84,0.00,,,0.00,WUHU21636XXSP,2013-05-04 07:06:00,
2013-05-04 02:11:00,38.4,34.0,30.02,SSW,202,0.0,0.0,84,0.00,,,0.00,WUHU21636XXSP,2013-05-04 07:11:00,
2013-05-04 02:16:00,38.4,34.0,30.02,SSW,202,0.0,0.0,84,0.00,,,0.00,WUHU21636XXSP,2013-05-04 07:16:00,
2013-05-04 02:21:00,38.4,34.0,30.02,SSW,202,0.0,0.0,84,0.00,,,0.00,WUHU21636XXSP,2013-05-04 07:21:00,
2013-05-04 02:26:00,38.3,33.9,30.00,NNE,22,0.0,0.0,84,0.00,,,0.00,WUHU21636XXSP,2013-05-04 07:26:00,
2013-05-04 02:31:00,38.3,33.9,30.00,SE,135,0.0,0.0,84,0.06,,,0.04,WUHU21636XXSP,2013-05-04 07:31:00,
2013-05-04 02:36:00,38.4,34.0,30.01,South,180,0.0,0.0,84,0.06,,,0.06,WUHU21636XXSP,2013-05-04 07:36:00,
2013-05-04 02:41:00,38.4,34.0,30.01,South,180,0.0,0.0,84,0.06,,,0.06,WUHU21636XXSP,2013-05-04 07:41:00,
2013-05-04 02:46:00,38.4,34.0,30.02,South,180,0.0,0.0,84,0.06,,,0.06,WUHU21636XXSP,2013-05-04 07:46:00,
2013-05-04 02:51:00,38.4,34.0,30.01,South,180,0.0,0.0,84,0.06,,,0.06,WUHU21636XXSP,2013-05-04 07:51:00,
2013-05-04 02:56:00,38.4,34.0,30.01,South,180,0.0,0.0,84,0.06,,,0.06,WUHU21636XXSP,2013-05-04 07:56:00,
2013-05-04 03:01:00,38.4,34.0,30.01,South,180,0.0,0.0,84,0.06,,,0.06,WUHU21636XXSP,2013-05-04 08:01:00,
2013-05-04 03:06:00,38.6,34.2,30.01,South,180,0.0,0.0,84,0.06,,,0.06,WUHU21636XXSP,2013-05-04 08:06:00,
2013-05-04 03:11:00,38.6,34.2,30.01,South,180,0.0,0.0,84,0.06,,,0.06,WUHU21636XXSP,2013-05-04 08:11:00,
2013-05-04 03:16:00,38.6,34.2,30.01,South,180,0.0,0.0,84,0.06,,,0.06,WUHU21636XXSP,2013-05-04 08:16:00,
2013-05-04 03:21:00,38.6,34.2,30.00,South,180,0.0,0.0,84,0.06,,,0.06,WUHU21636XXSP,2013-05-04 08:21:00,
2013-05-04 03:26:00,38.6,34.2,30.01,South,180,0.0,0.0,84,0.06,,,0.06,WUHU21636XXSP,2013-05-04 08:26:00,
2013-05-04 03:31:00,38.6,34.2,30.00,South,180,0.0,0.0,84,0.06,,,0.06,WUHU21636XXSP,2013-05-04 08:31:00,
2013-05-04 03:36:00,38.6,34.2,30.00,South,180,0.0,0.0,84,0.06,,,0.06,WUHU21636XXSP,2013-05-04 08:36:00,
2013-05-04 03:41:00,38.6,34.2,30.00,South,180,0.0,0.0,84,0.06,,,0.06,WUHU21636XXSP,2013-05-04 08:41:00,
2013-05-04 03:46:00,38.6,34.2,30.00,South,180,0.0,0.0,84,0.06,,,0.06,WUHU21636XXSP,2013-05-04 08:46:00,
2013-05-04 03:51:00,38.8,34.4,30.01,ESE,112,0.0,0.0,84,0.06,,,0.06,WUHU21636XXSP,2013-05-04 08:51:00,
2013-05-04 03:56:00,38.8,34.4,30.02,South,180,0.0,0.0,84,0.06,,,0.06,WUHU21636XXSP,2013-05-04 08:56:00,
2013-05-04 04:01:00,38.8,34.4,30.03,South,180,0.0,0.0,84,0.06,,,0.06,WUHU21636XXSP,2013-05-04 09:01:00,
2013-05-04 04:06:00,38.8,34.4,30.03,South,180,0.0,0.0,84,0.00,,,0.06,WUHU21636XXSP,2013-05-04 09:06:00,
2013-05-04 04:11:00,38.8,34.4,30.02,South,180,0.0,0.0,84,0.00,,,0.06,WUHU21636XXSP,2013-05-04 09:11:00,
2013-05-04 04:16:00,38.8,34.4,30.02,South,180,0.0,0.0,84,0.00,,,0.06,WUHU21636XXSP,2013-05-04 09:16:00,
2013-05-04 04:21:00,38.8,34.4,30.02,South,180,0.0,0.0,84,0.00,,,0.06,WUHU21636XXSP,2013-05-04 09:21:00,
2013-05-04 04:26:00,38.8,34.4,30.02,South,180,0.0,0.0,84,0.00,,,0.06,WUHU21636XXSP,2013-05-04 09:26:00,
2013-05-04 04:31:00,39.1,34.6,30.02,South,180,0.0,0.0,84,0.00,,,0.06,WUHU21636XXSP,2013-05-04 09:31:00,
2013-05-04 04:36:00,39.1,34.6,30.01,South,180,0.0,0.0,84,0.00,,,0.06,WUHU21636XXSP,2013-05-04 09:36:00,
2013-05-04 04:41:00,39.1,34.6,30.01,South,180,0.0,0.0,84,0.00,,,0.06,WUHU21636XXSP,2013-05-04 09:41:00,
2013-05-04 04:46:00,39.1,34.6,30.01,South,180,0.0,0.0,84,0.00,,,0.06,WUHU21636XXSP,2013-05-04 09:46:00,
2013-05-04 04:51:00,39.1,34.6,30.02,South,180,0.0,0.0,84,0.00,,,0.06,WUHU21636XXSP,2013-05-04 09:51:00,
2013-05-04 04:56:00,39.3,34.8,30.02,South,180,0.0,0.0,84,0.00,,,0.06,WUHU21636XXSP,2013-05-04 09:56:00,
2013-05-04 05:01:00,39.3,34.8,30.02,SSE,157,0.0,0.0,84,0.00,,,0.06,WUHU21636XXSP,2013-05-04 10:01:00,
2013-05-04 05:06:00,39.1,34.6,30.02,NE,45,0.0,0.0,84,0.00,,,0.06,WUHU21636XXSP,2013-05-04 10:06:00,
2013-05-04 05:11:00,39.3,34.8,30.02,NE,45,0.0,0.0,84,0.00,,,0.06,WUHU21636XXSP,2013-05-04 10:11:00,
2013-05-04 05:16:00,39.3,34.8,30.01,NE,45,0.0,0.0,84,0.00,,,0.06,WUHU21636XXSP,2013-05-04 10:16:00,
2013-05-04 05:21:00,39.1,34.6,30.01,East,90,0.0,0.0,84,0.00,,,0.06,WUHU21636XXSP,2013-05-04 10:21:00,
2013-05-04 05:26:00,39.1,34.6,30.01,ESE,112,0.0,0.0,84,0.00,,,0.06,WUHU21636XXSP,2013-05-04 10:26:00,
2013-05-04 05:31:00,39.1,34.6,30.02,ESE,112,0.0,0.0,84,0.00,,,0.06,WUHU21636XXSP,2013-05-04 10:31:00,
2013-05-04 05:36:00,39.1,34.6,30.02,ESE,112,0.0,0.0,84,0.00,,,0.06,WUHU21636XXSP,2013-05-04 10:36:00,
2013-05-04 05:41:00,39.1,34.6,30.02,ESE,112,0.0,0.0,84,0.00,,,0.06,WUHU21636XXSP,2013-05-04 10:41:00,
2013-05-04 05:46:00,39.1,34.6,30.02,ESE,112,0.0,0.0,84,0.00,,,0.06,WUHU21636XXSP,2013-05-04 10:46:00,
2013-05-04 05:51:00,39.1,34.6,30.03,ESE,112,0.0,0.0,84,0.00,,,0.06,WUHU21636XXSP,2013-05-04 10:51:00,
2013-05-04 05:56:00,39.3,34.8,30.02,SE,135,0.0,0.0,84,0.00,,,0.06,WUHU21636XXSP,2013-05-04 10:56:00,
2013-05-04 06:01:00,39.1,34.6,30.02,ESE,112,0.0,0.0,84,0.00,,,0.06,WUHU21636XXSP,2013-05-04 11:01:00,
2013-05-04 06:06:00,39.1,34.6,30.02,ENE,67,0.0,0.0,84,0.00,,,0.06,WUHU21636XXSP,2013-05-04 11:06:00,
2013-05-04 06:11:00,39.1,34.6,30.03,SE,135,0.0,0.0,84,0.00,,,0.06,WUHU21636XXSP,2013-05-04 11:11:00,
2013-05-04 06:16:00,39.1,34.6,30.03,ESE,112,0.0,0.0,84,0.00,,,0.06,WUHU21636XXSP,2013-05-04 11:16:00,
2013-05-04 06:21:00,39.1,34.6,30.03,ENE,67,0.0,0.0,84,0.00,,,0.06,WUHU21636XXSP,2013-05-04 11:21:00,
2013-05-04 06:26:00,39.4,34.9,30.02,ESE,112,0.0,0.0,84,0.00,,,0.06,WUHU21636XXSP,2013-05-04 11:26:00,
2013-05-04 06:31:00,39.4,34.9,30.02,ESE,112,0.0,0.0,84,0.00,,,0.06,WUHU21636XXSP,2013-05-04 11:31:00,
2013-05-04 06:36:00,39.4,34.9,30.03,ESE,112,0.0,0.0,84,0.00,,,0.06,WUHU21636XXSP,2013-05-04 11:36:00,
2013-05-04 06:41:00,39.4,34.9,30.02,ESE,112,0.0,0.0,84,0.00,,,0.06,WUHU21636XXSP,2013-05-04 11:41:00,
2013-05-04 06:46:00,39.4,34.9,30.02,ESE,112,0.0,0.0,84,0.00,,,0.06,WUHU21636XXSP,2013-05-04 11:46:00,
2013-05-04 06:52:00,39.6,35.1,30.02,ESE,112,0.0,0.0,84,0.00,,,0.06,WUHU21636XXSP,2013-05-04 11:52:00,
2013-05-04 06:57:00,39.6,35.1,30.03,ESE,112,0.0,0.0,84,0.00,,,0.06,WUHU21636XXSP,2013-05-04 11:57:00,
2013-05-04 07:02:00,40.0,35.5,30.03,ESE,112,0.0,0.0,84,0.00,,,0.06,WUHU21636XXSP,2013-05-04 12:02:00,
2013-05-04 07:07:00,40.0,35.5,30.03,ESE,112,0.0,0.0,84,0.00,,,0.06,WUHU21636XXSP,2013-05-04 12:07:00,
2013-05-04 07:12:00,40.0,35.5,30.03,NNE,22,0.0,0.0,84,0.00,,,0.06,WUHU21636XXSP,2013-05-04 12:12:00,
2013-05-04 07:17:00,40.2,35.8,30.03,ESE,112,0.0,0.0,84,0.00,,,0.06,WUHU21636XXSP,2013-05-04 12:17:00,
2013-05-04 07:22:00,40.5,36.1,30.03,ESE,112,0.0,0.0,84,0.00,,,0.06,WUHU21636XXSP,2013-05-04 12:22:00,
2013-05-04 07:27:00,40.7,36.3,30.03,ESE,112,0.0,0.0,84,0.00,,,0.06,WUHU21636XXSP,2013-05-04 12:27:00,
2013-05-04 07:32:00,40.7,36.3,30.03,ESE,112,0.0,0.0,84,0.00,,,0.06,WUHU21636XXSP,2013-05-04 12:32:00,
2013-05-04 07:37:00,41.0,36.5,30.03,ESE,112,0.0,0.0,84,0.00,,,0.06,WUHU21636XXSP,2013-05-04 12:37:00,
2013-05-04 07:42:00,41.3,36.8,30.03,NE,45,0.0,0.0,84,0.00,,,0.06,WUHU21636XXSP,2013-05-04 12:42:00,
2013-05-04 07:47:00,41.3,36.8,30.04,ESE,112,0.0,0.0,84,0.00,,,0.06,WUHU21636XXSP,2013-05-04 12:47:00,
2013-05-04 07:52:00,41.5,37.0,30.03,ESE,112,0.0,0.0,84,0.00,,,0.06,WUHU21636XXSP,2013-05-04 12:52:00,
2013-05-04 07:57:00,41.5,37.0,30.04,ESE,112,0.0,0.0,84,0.00,,,0.06,WUHU21636XXSP,2013-05-04 12:57:00,
2013-05-04 08:02:00,41.7,37.2,30.04,SE,135,0.0,0.0,84,0.00,,,0.06,WUHU21636XXSP,2013-05-04 13:02:00,
2013-05-04 08:03:00,41.9,37.4,30.04,ESE,112,0.0,0.0,84,0.00,,,0.06,WUHU21636XXSP,2013-05-04 13:03:00,
2013-05-04 08:08:00,42.2,37.7,30.04,East,90,0.0,0.0,84,0.00,,,0.06,WUHU21636XXSP,2013-05-04 13:08:00,
2013-05-04 08:13:00,42.4,37.9,30.03,SE,135,0.0,0.0,84,0.00,,,0.06,WUHU21636XXSP,2013-05-04 13:13:00,
2013-05-04 08:18:00,42.4,37.9,30.03,ENE,67,0.0,0.0,84,0.00,,,0.06,WUHU21636XXSP,2013-05-04 13:18:00,
2013-05-04 08:23:00,42.6,38.1,30.03,NNE,22,0.0,0.0,84,0.00,,,0.06,WUHU21636XXSP,2013-05-04 13:23:00,
2013-05-04 08:28:00,42.8,38.3,30.03,ENE,67,0.0,0.0,84,0.00,,,0.06,WUHU21636XXSP,2013-05-04 13:28:00,
2013-05-04 08:33:00,42.8,38.3,30.03,ENE,67,0.0,0.0,84,0.00,,,0.06,WUHU21636XXSP,2013-05-04 13:33:00,
2013-05-04 08:38:00,43.2,38.6,30.03,ESE,112,0.0,0.0,84,0.00,,,0.06,WUHU21636XXSP,2013-05-04 13:38:00,
2013-05-04 08:43:00,43.2,38.6,30.03,NE,45,0.0,0.0,84,0.00,,,0.06,WUHU21636XXSP,2013-05-04 13:43:00,
2013-05-04 08:48:00,43.4,38.8,30.02,East,90,0.0,0.0,84,0.00,,,0.06,WUHU21636XXSP,2013-05-04 13:48:00,
2013-05-04 08:53:00,43.8,39.3,30.03,SSE,157,0.0,0.0,84,0.00,,,0.06,WUHU21636XXSP,2013-05-04 13:53:00,
2013-05-04 08:58:00,44.0,39.5,30.04,SSE,157,0.0,0.0,84,0.00,,,0.06,WUHU21636XXSP,2013-05-04 13:58:00,
2013-05-04 09:03:00,44.3,39.8,30.03,NW,315,0.0,0.0,84,0.00,,,0.06,WUHU21636XXSP,2013-05-04 14:03:00,
2013-05-04 09:08:00,44.7,40.2,30.03,SE,135,0.0,0.0,84,0.00,,,0.06,WUHU21636XXSP,2013-05-04 14:08:00,
2013-05-04 09:13:00,45.0,40.5,30.03,SE,135,0.0,0.0,84,0.00,,,0.06,WUHU21636XXSP,2013-05-04 14:13:00,
2013-05-04 09:18:00,45.5,40.9,30.03,East,90,0.0,0.0,84,0.00,,,0.06,WUHU21636XXSP,2013-05-04 14:18:00,
2013-05-04 09:23:00,45.7,41.1,30.03,East,90,0.0,0.0,84,0.00,,,0.06,WUHU21636XXSP,2013-05-04 14:23:00,
2013-05-04 09:28:00,46.0,41.4,30.03,ESE,112,0.0,0.0,84,0.00,,,0.06,WUHU21636XXSP,2013-05-04 14:28:00,
2013-05-04 09:33:00,46.6,42.0,30.03,ESE,112,0.0,0.0,84,0.00,,,0.06,WUHU21636XXSP,2013-05-04 14:33:00,
2013-05-04 09:38:00,47.1,42.6,30.03,ESE,112,0.0,0.0,84,0.00,,,0.06,WUHU21636XXSP,2013-05-04 14:38:00,
2013-05-04 09:43:00,47.4,42.5,30.04,ESE,112,0.0,0.0,83,0.00,,,0.06,WUHU21636XXSP,2013-05-04 14:43:00,
2013-05-04 09:48:00,47.8,42.9,30.04,SE,135,0.0,0.0,83,0.00,,,0.06,WUHU21636XXSP,2013-05-04 14:48:00,
2013-05-04 09:53:00,48.3,43.4,30.05,WNW,292,0.0,0.0,83,0.00,,,0.06,WUHU21636XXSP,2013-05-04 14:53:00,
2013-05-04 09:58:00,48.1,42.9,30.04,ENE,67,0.0,0.0,82,0.00,,,0.06,WUHU21636XXSP,2013-05-04 14:58:00,
2013-05-04 10:03:00,48.1,42.9,30.04,South,180,0.0,0.0,82,0.00,,,0.06,WUHU21636XXSP,2013-05-04 15:03:00,
2013-05-04 10:08:00,48.3,43.1,30.04,SE,135,0.0,0.0,82,0.00,,,0.06,WUHU21636XXSP,2013-05-04 15:08:00,
2013-05-04 10:13:00,48.8,43.6,30.04,SE,135,0.0,0.0,82,0.00,,,0.06,WUHU21636XXSP,2013-05-04 15:13:00,
2013-05-04 10:18:00,49.8,44.5,30.04,ENE,67,0.0,0.0,82,0.00,,,0.06,WUHU21636XXSP,2013-05-04 15:18:00,
2013-05-04 10:23:00,50.2,44.6,30.05,NE,45,0.0,0.0,81,0.00,,,0.06,WUHU21636XXSP,2013-05-04 15:23:00,
2013-05-04 10:28:00,50.7,45.1,30.05,SE,135,0.0,0.0,81,0.00,,,0.06,WUHU21636XXSP,2013-05-04 15:28:00,
2013-05-04 10:33:00,50.9,45.3,30.05,ENE,67,0.0,0.0,81,0.00,,,0.06,WUHU21636XXSP,2013-05-04 15:33:00,
2013-05-04 10:38:00,51.6,45.6,30.05,ESE,112,0.0,0.0,80,0.00,,,0.06,WUHU21636XXSP,2013-05-04 15:38:00,
2013-05-04 10:43:00,51.7,45.4,30.05,ESE,112,0.0,0.0,79,0.00,,,0.06,WUHU21636XXSP,2013-05-04 15:43:00,
2013-05-04 10:48:00,52.6,46.3,30.05,ESE,107,1.4,1.6,79,0.00,,,0.06,WUHU21636XXSP,2013-05-04 15:48:00,
2013-05-04 10:53:00,53.8,47.5,30.05,SE,131,3.5,5.8,79,0.00,,,0.06,WUHU21636XXSP,2013-05-04 15:53:00,
2013-05-04 10:58:00,54.5,47.5,30.05,WNW,292,0.0,5.8,77,0.00,,,0.06,WUHU21636XXSP,2013-05-04 15:58:00,
2013-05-04 11:03:00,54.9,47.6,30.05,NW,315,0.0,1.2,76,0.00,,,0.06,WUHU21636XXSP,2013-05-04 16:03:00,
2013-05-04 11:08:00,55.3,48.0,30.05,ENE,67,0.0,0.0,76,0.00,,,0.06,WUHU21636XXSP,2013-05-04 16:08:00,
2013-05-04 11:13:00,55.4,47.4,30.05,NE,45,0.0,0.0,74,0.00,,,0.06,WUHU21636XXSP,2013-05-04 16:13:00,
2013-05-04 11:18:00,55.7,48.3,30.05,West,270,0.0,0.0,76,0.00,,,0.06,WUHU21636XXSP,2013-05-04 16:18:00,
2013-05-04 11:23:00,56.4,48.7,30.05,SSE,157,4.0,4.0,75,0.00,,,0.06,WUHU21636XXSP,2013-05-04 16:23:00,
2013-05-04 11:28:00,57.2,49.5,30.05,ESE,105,0.9,4.0,75,0.00,,,0.06,WUHU21636XXSP,2013-05-04 16:28:00,
2013-05-04 11:33:00,57.5,49.4,30.05,East,90,0.0,1.2,74,0.00,,,0.06,WUHU21636XXSP,2013-05-04 16:33:00,
2013-05-04 11:38:00,58.3,49.8,30.05,WNW,292,0.0,0.8,73,0.00,,,0.06,WUHU21636XXSP,2013-05-04 16:38:00,
2013-05-04 11:43:00,58.7,49.8,30.04,SE,135,0.8,0.8,72,0.00,,,0.06,WUHU21636XXSP,2013-05-04 16:43:00,
2013-05-04 11:49:00,59.2,50.3,30.04,SE,135,0.0,0.8,72,0.00,,,0.06,WUHU21636XXSP,2013-05-04 16:49:00,
2013-05-04 11:54:00,60.2,50.5,30.05,SSE,157,0.0,0.0,70,0.00,,,0.06,WUHU21636XXSP,2013-05-04 16:54:00,
2013-05-04 11:59:00,61.0,50.5,30.05,North,0,3.0,3.0,68,0.00,,,0.06,WUHU21636XXSP,2013-05-04 16:59:00,
2013-05-04 12:04:00,61.7,51.2,30.05,ENE,67,0.0,3.0,68,0.00,,,0.06,WUHU21636XXSP,2013-05-04 17:04:00,
2013-05-04 12:09:00,62.7,52.1,30.05,NE,51,8.8,9.8,68,0.00,,,0.06,WUHU21636XXSP,2013-05-04 17:09:00,
2013-05-04 12:14:00,62.7,51.3,30.05,NNW,337,0.0,9.8,66,0.00,,,0.06,WUHU21636XXSP,2013-05-04 17:14:00,
2013-05-04 12:19:00,63.0,51.6,30.05,ENE,67,5.2,8.4,66,0.00,,,0.06,WUHU21636XXSP,2013-05-04 17:19:00,
2013-05-04 12:24:00,63.6,51.8,30.04,NNW,337,0.0,5.2,65,0.00,,,0.06,WUHU21636XXSP,2013-05-04 17:24:00,
2013-05-04 12:29:00,62.7,51.7,30.05,WNW,292,0.8,6.2,67,0.00,,,0.06,WUHU21636XXSP,2013-05-04 17:29:00,
2013-05-04 12:34:00,63.2,52.6,30.05,ESE,112,7.5,8.4,68,0.00,,,0.06,WUHU21636XXSP,2013-05-04 17:34:00,
2013-05-04 12:39:00,64.6,53.5,30.05,ESE,112,0.0,8.4,67,0.00,,,0.06,WUHU21636XXSP,2013-05-04 17:39:00,
2013-05-04 12:44:00,65.5,53.2,30.05,SSE,157,0.0,6.6,64,0.00,,,0.06,WUHU21636XXSP,2013-05-04 17:44:00,
2013-05-04 12:49:00,66.0,53.3,30.05,ENE,67,6.2,6.2,63,0.00,,,0.06,WUHU21636XXSP,2013-05-04 17:49:00,
2013-05-04 12:54:00,66.3,53.0,30.05,ESE,112,0.0,6.2,62,0.00,,,0.06,WUHU21636XXSP,2013-05-04 17:54:00,
2013-05-04 12:59:00,66.5,53.2,30.05,ENE,67,8.0,8.0,62,0.00,,,0.06,WUHU21636XXSP,2013-05-04 17:59:00,
2013-05-04 13:04:00,66.8,53.5,30.05,ENE,67,0.0,8.0,62,0.00,,,0.06,WUHU21636XXSP,2013-05-04 18:04:00,
2013-05-04 13:09:00,67.0,53.3,30.05,ENE,67,0.0,3.0,61,0.00,,,0.06,WUHU21636XXSP,2013-05-04 18:09:00,
2013-05-04 13:14:00,67.2,53.5,30.05,East,90,0.0,0.0,61,0.00,,,0.06,WUHU21636XXSP,2013-05-04 18:14:00,
2013-05-04 13:19:00,67.7,53.5,30.04,NW,315,0.0,6.6,60,0.00,,,0.06,WUHU21636XXSP,2013-05-04 18:19:00,
2013-05-04 13:24:00,68.4,54.6,30.05,NE,45,2.2,6.6,61,0.00,,,0.06,WUHU21636XXSP,2013-05-04 18:24:00,
2013-05-04 13:29:00,68.4,54.1,30.04,East,90,0.0,2.2,60,0.00,,,0.06,WUHU21636XXSP,2013-05-04 18:29:00,
2013-05-04 13:34:00,68.9,54.6,30.04,ESE,112,0.0,7.0,60,0.00,,,0.06,WUHU21636XXSP,2013-05-04 18:34:00,
2013-05-04 13:39:00,68.9,54.6,30.03,NE,45,4.8,7.0,60,0.00,,,0.06,WUHU21636XXSP,2013-05-04 18:39:00,
2013-05-04 13:44:00,69.5,54.7,30.03,NE,38,3.3,13.4,59,0.00,,,0.06,WUHU21636XXSP,2013-05-04 18:44:00,
2013-05-04 13:49:00,69.6,53.9,30.03,East,90,10.2,13.4,57,0.00,,,0.06,WUHU21636XXSP,2013-05-04 18:49:00,
2013-05-04 13:54:00,69.3,54.0,30.02,East,90,17.8,18.6,58,0.00,,,0.06,WUHU21636XXSP,2013-05-04 18:54:00,
2013-05-04 13:59:00,69.3,54.0,30.02,NNE,22,3.0,18.6,58,0.00,,,0.06,WUHU21636XXSP,2013-05-04 18:59:00,
2013-05-04 14:04:00,69.1,53.8,30.02,West,270,0.0,16.4,58,0.00,,,0.06,WUHU21636XXSP,2013-05-04 19:04:00,
2013-05-04 14:09:00,69.1,53.8,30.02,ENE,67,0.0,6.6,58,0.00,,,0.06,WUHU21636XXSP,2013-05-04 19:09:00,
2013-05-04 14:14:00,68.9,54.1,30.02,South,180,3.0,3.0,59,0.00,,,0.06,WUHU21636XXSP,2013-05-04 19:14:00,
2013-05-04 14:19:00,68.9,54.1,30.02,South,180,0.0,3.0,59,0.00,,,0.06,WUHU21636XXSP,2013-05-04 19:19:00,
2013-05-04 14:24:00,69.6,54.8,30.02,ESE,112,0.0,3.0,59,0.00,,,0.06,WUHU21636XXSP,2013-05-04 19:24:00,
2013-05-04 14:29:00,70.8,54.9,30.02,WSW,247,4.4,4.4,57,0.00,,,0.06,WUHU21636XXSP,2013-05-04 19:29:00,
2013-05-04 14:34:00,71.2,54.3,30.02,WSW,247,12.8,15.2,55,0.00,,,0.06,WUHU21636XXSP,2013-05-04 19:34:00,
2013-05-04 14:39:00,69.8,53.6,30.02,SSW,202,5.8,15.2,56,0.00,,,0.06,WUHU21636XXSP,2013-05-04 19:39:00,
2013-05-04 14:44:00,69.8,53.6,30.02,West,270,0.0,13.8,56,0.00,,,0.06,WUHU21636XXSP,2013-05-04 19:44:00,
2013-05-04 14:49:00,69.8,53.6,30.02,WSW,247,3.4,3.4,56,0.00,,,0.06,WUHU21636XXSP,2013-05-04 19:49:00,
2013-05-04 14:54:00,69.8,54.1,30.02,West,270,1.6,3.4,57,0.00,,,0.06,WUHU21636XXSP,2013-05-04 19:54:00,
2013-05-04 14:59:00,68.9,53.2,30.02,WNW,292,0.0,3.4,57,0.00,,,0.06,WUHU21636XXSP,2013-05-04 19:59:00,
2013-05-04 15:04:00,67.7,52.1,30.02,WNW,292,6.6,6.6,57,0.00,,,0.06,WUHU21636XXSP,2013-05-04 20:04:00,
2013-05-04 15:09:00,67.4,51.8,30.02,WNW,292,2.2,6.6,57,0.00,,,0.06,WUHU21636XXSP,2013-05-04 20:09:00,
2013-05-04 15:14:00,67.2,52.1,30.02,WSW,247,0.0,2.2,58,0.00,,,0.06,WUHU21636XXSP,2013-05-04 20:14:00,
2013-05-04 15:19:00,67.0,52.8,30.02,West,270,0.0,0.0,60,0.00,,,0.06,WUHU21636XXSP,2013-05-04 20:19:00,
2013-05-04 15:24:00,67.2,52.1,30.02,West,270,2.2,2.2,58,0.00,,,0.06,WUHU21636XXSP,2013-05-04 20:24:00,
2013-05-04 15:29:00,67.2,52.1,30.02,WSW,247,1.6,2.2,58,0.00,,,0.06,WUHU21636XXSP,2013-05-04 20:29:00,
2013-05-04 15:34:00,67.0,52.8,30.01,NW,315,8.8,8.8,60,0.00,,,0.06,WUHU21636XXSP,2013-05-04 20:34:00,
2013-05-04 15:39:00,67.7,53.0,30.01,WSW,247,5.8,8.8,59,0.00,,,0.06,WUHU21636XXSP,2013-05-04 20:39:00,
2013-05-04 15:44:00,68.7,53.5,30.01,WSW,247,0.0,8.0,58,0.00,,,0.06,WUHU21636XXSP,2013-05-04 20:44:00,
2013-05-04 15:49:00,69.6,53.4,30.00,WNW,292,0.0,8.0,56,0.00,,,0.06,WUHU21636XXSP,2013-05-04 20:49:00,
2013-05-04 15:54:00,70.6,54.2,30.00,SW,225,0.0,6.6,56,0.00,,,0.06,WUHU21636XXSP,2013-05-04 20:54:00,
2013-05-04 15:59:00,71.2,54.3,30.01,West,270,6.2,6.6,55,0.00,,,0.06,WUHU21636XXSP,2013-05-04 20:59:00,
2013-05-04 16:04:00,70.8,53.9,30.00,West,270,3.4,6.2,55,0.00,,,0.06,WUHU21636XXSP,2013-05-04 21:04:00,
2013-05-04 16:09:00,71.0,53.6,30.00,WSW,247,4.4,4.4,54,0.00,,,0.06,WUHU21636XXSP,2013-05-04 21:09:00,
2013-05-04 16:14:00,70.6,53.7,30.01,SW,233,8.2,8.8,55,0.00,,,0.06,WUHU21636XXSP,2013-05-04 21:14:00,
2013-05-04 16:19:00,69.8,53.1,30.00,West,270,1.6,8.8,55,0.00,,,0.06,WUHU21636XXSP,2013-05-04 21:19:00,
2013-05-04 16:24:00,69.1,52.9,30.00,South,180,0.0,5.8,56,0.00,,,0.06,WUHU21636XXSP,2013-05-04 21:24:00,
2013-05-04 16:29:00,68.4,52.7,30.00,West,270,0.0,1.6,57,0.00,,,0.06,WUHU21636XXSP,2013-05-04 21:29:00,
2013-05-04 16:34:00,67.7,52.1,30.00,West,270,0.0,0.0,57,0.00,,,0.06,WUHU21636XXSP,2013-05-04 21:34:00,
2013-05-04 16:39:00,67.4,51.8,30.01,WSW,247,0.0,0.0,57,0.00,,,0.06,WUHU21636XXSP,2013-05-04 21:39:00,
2013-05-04 16:44:00,67.2,51.6,30.01,SW,225,8.0,8.0,57,0.00,,,0.06,WUHU21636XXSP,2013-05-04 21:44:00,
2013-05-04 16:49:00,67.0,51.9,30.01,South,180,0.0,8.0,58,0.00,,,0.06,WUHU21636XXSP,2013-05-04 21:49:00,
2013-05-04 16:54:00,67.2,52.1,30.01,West,270,0.0,8.0,58,0.00,,,0.06,WUHU21636XXSP,2013-05-04 21:54:00,
2013-05-04 16:59:00,67.4,51.8,30.01,WSW,247,5.2,5.2,57,0.00,,,0.06,WUHU21636XXSP,2013-05-04 21:59:00,
2013-05-04 17:04:00,67.4,52.3,30.01,SSW,202,0.0,5.2,58,0.00,,,0.06,WUHU21636XXSP,2013-05-04 22:04:00,
2013-05-04 17:09:00,67.2,52.1,30.01,WSW,247,1.2,4.4,58,0.00,,,0.06,WUHU21636XXSP,2013-05-04 22:09:00,
2013-05-04 17:14:00,67.0,51.4,30.01,East,90,1.6,1.6,57,0.00,,,0.06,WUHU21636XXSP,2013-05-04 22:14:00,
2013-05-04 17:19:00,67.0,51.9,30.01,NW,315,1.2,1.6,58,0.00,,,0.06,WUHU21636XXSP,2013-05-04 22:19:00,
2013-05-04 17:24:00,66.7,52.0,30.02,WNW,292,0.8,1.2,59,0.00,,,0.06,WUHU21636XXSP,2013-05-04 22:24:00,
2013-05-04 17:29:00,66.8,51.7,30.01,West,270,0.0,0.8,58,0.00,,,0.06,WUHU21636XXSP,2013-05-04 22:29:00,
2013-05-04 17:34:00,66.8,52.1,30.02,ENE,67,3.4,3.4,59,0.00,,,0.06,WUHU21636XXSP,2013-05-04 22:34:00,
2013-05-04 17:39:00,67.0,52.3,30.01,WNW,292,5.8,5.8,59,0.00,,,0.06,WUHU21636XXSP,2013-05-04 22:39:00,
2013-05-04 17:44:00,67.4,52.3,30.01,West,270,0.0,5.8,58,0.00,,,0.06,WUHU21636XXSP,2013-05-04 22:44:00,
2013-05-04 17:49:00,67.0,51.9,30.01,West,270,0.0,5.8,58,0.00,,,0.06,WUHU21636XXSP,2013-05-04 22:49:00,
2013-05-04 17:54:00,67.0,52.3,30.01,WSW,247,6.6,6.6,59,0.00,,,0.06,WUHU21636XXSP,2013-05-04 22:54:00,
2013-05-04 17:59:00,66.8,52.1,30.01,SW,225,6.2,6.6,59,0.00,,,0.06,WUHU21636XXSP,2013-05-04 22:59:00,
2013-05-04 18:04:00,66.7,52.0,30.02,SSW,202,0.0,6.6,59,0.00,,,0.06,WUHU21636XXSP,2013-05-04 23:04:00,
2013-05-04 18:09:00,66.8,52.1,30.02,WSW,247,3.5,4.4,59,0.00,,,0.06,WUHU21636XXSP,2013-05-04 23:09:00,
2013-05-04 18:14:00,66.8,52.6,30.01,NW,315,0.0,4.4,60,0.00,,,0.06,WUHU21636XXSP,2013-05-04 23:14:00,
2013-05-04 18:19:00,66.8,52.6,30.02,SW,225,0.0,3.0,60,0.00,,,0.06,WUHU21636XXSP,2013-05-04 23:19:00,
2013-05-04 18:24:00,67.0,51.9,30.02,ENE,67,4.8,4.8,58,0.00,,,0.06,WUHU21636XXSP,2013-05-04 23:24:00,
2013-05-04 18:29:00,67.0,52.3,30.02,WNW,292,0.8,4.8,59,0.00,,,0.06,WUHU21636XXSP,2013-05-04 23:29:00,
2013-05-04 18:34:00,67.0,52.3,30.01,SW,225,0.0,0.8,59,0.00,,,0.06,WUHU21636XXSP,2013-05-04 23:34:00,
2013-05-04 18:39:00,66.8,52.1,30.02,WSW,247,0.0,6.2,59,0.00,,,0.06,WUHU21636XXSP,2013-05-04 23:39:00,
2013-05-04 18:44:00,66.8,52.6,30.02,WSW,247,4.4,6.2,60,0.00,,,0.06,WUHU21636XXSP,2013-05-04 23:44:00,
2013-05-04 18:49:00,66.5,51.8,30.01,WSW,247,0.0,4.4,59,0.00,,,0.06,WUHU21636XXSP,2013-05-04 23:49:00,
2013-05-04 18:54:00,65.8,51.3,30.02,WSW,247,0.0,0.0,59,0.00,,,0.06,WUHU21636XXSP,2013-05-04 23:54:00,
2013-05-04 18:59:00,65.3,51.2,30.02,SW,225,0.0,0.0,60,0.00,,,0.06,WUHU21636XXSP,2013-05-04 23:59:00,
2013-05-04 19:04:00,65.1,51.0,30.02,SSE,157,0.0,2.6,60,0.00,,,0.06,WUHU21636XXSP,2013-05-05 00:04:00,
2013-05-04 19:09:00,64.9,51.3,30.02,South,180,3.0,3.0,61,0.00,,,0.06,WUHU21636XXSP,2013-05-05 00:09:00,
2013-05-04 19:14:00,64.9,51.3,30.02,WNW,292,1.6,3.0,61,0.00,,,0.06,WUHU21636XXSP,2013-05-05 00:14:00,
2013-05-04 19:19:00,64.6,51.0,30.02,SW,225,0.0,3.0,61,0.00,,,0.06,WUHU21636XXSP,2013-05-05 00:19:00,
2013-05-04 19:24:00,63.9,50.8,30.02,SSW,202,0.0,7.0,62,0.00,,,0.06,WUHU21636XXSP,2013-05-05 00:24:00,
2013-05-04 19:29:00,63.6,50.5,30.03,SSW,202,0.0,7.0,62,0.00,,,0.06,WUHU21636XXSP,2013-05-05 00:29:00,
2013-05-04 19:34:00,63.4,50.3,30.03,SW,225,0.0,4.4,62,0.00,,,0.06,WUHU21636XXSP,2013-05-05 00:34:00,
2013-05-04 19:39:00,63.0,49.9,30.03,SW,225,0.0,4.4,62,0.00,,,0.06,WUHU21636XXSP,2013-05-05 00:39:00,
2013-05-04 19:44:00,62.7,49.6,30.03,West,270,0.0,0.0,62,0.00,,,0.06,WUHU21636XXSP,2013-05-05 00:44:00,
2013-05-04 19:49:00,62.1,49.5,30.03,West,270,0.0,0.0,63,0.00,,,0.06,WUHU21636XXSP,2013-05-05 00:49:00,
2013-05-04 19:54:00,61.5,49.4,30.03,NNE,22,0.0,0.0,64,0.00,,,0.06,WUHU21636XXSP,2013-05-05 00:54:00,
2013-05-04 19:59:00,61.1,49.0,30.04,WNW,292,0.0,0.0,64,0.00,,,0.06,WUHU21636XXSP,2013-05-05 00:59:00,
2013-05-04 20:04:00,60.4,48.7,30.03,WSW,247,0.0,0.0,65,0.00,,,0.06,WUHU21636XXSP,2013-05-05 01:04:00,
2013-05-04 20:09:00,60.2,48.5,30.04,WNW,292,0.0,0.0,65,0.00,,,0.06,WUHU21636XXSP,2013-05-05 01:09:00,
2013-05-04 20:14:00,59.8,48.2,30.04,WNW,292,0.0,0.0,65,0.00,,,0.06,WUHU21636XXSP,2013-05-05 01:14:00,
2013-05-04 20:19:00,59.6,48.0,30.04,WSW,247,0.0,0.0,65,0.00,,,0.06,WUHU21636XXSP,2013-05-05 01:19:00,
2013-05-04 20:24:00,59.2,47.6,30.05,WSW,247,0.0,0.0,65,0.00,,,0.06,WUHU21636XXSP,2013-05-05 01:24:00,
2013-05-04 20:29:00,58.9,47.7,30.05,WSW,247,0.0,0.0,66,0.00,,,0.06,WUHU21636XXSP,2013-05-05 01:29:00,
2013-05-04 20:34:00,58.7,47.1,30.05,WNW,292,0.0,0.0,65,0.00,,,0.06,WUHU21636XXSP,2013-05-05 01:34:00,
2013-05-04 20:39:00,58.7,47.5,30.05,SSW,202,0.0,0.0,66,0.00,,,0.06,WUHU21636XXSP,2013-05-05 01:39:00,
2013-05-04 20:44:00,58.5,47.7,30.06,SW,225,0.0,0.0,67,0.00,,,0.06,WUHU21636XXSP,2013-05-05 01:44:00,
2013-05-04 20:49:00,58.3,47.5,30.06,SW,225,0.0,0.0,67,0.00,,,0.06,WUHU21636XXSP,2013-05-05 01:49:00,
2013-05-04 20:54:00,58.0,47.2,30.06,SW,225,0.0,0.0,67,0.00,,,0.06,WUHU21636XXSP,2013-05-05 01:54:00,
2013-05-04 20:59:00,58.2,47.4,30.06,SW,225,0.0,0.0,67,0.00,,,0.06,WUHU21636XXSP,2013-05-05 01:59:00,
2013-05-04 21:04:00,58.0,47.2,30.06,East,90,0.0,0.0,67,0.00,,,0.06,WUHU21636XXSP,2013-05-05 02:04:00,
2013-05-04 21:09:00,57.8,47.0,30.06,ESE,112,0.0,0.0,67,0.00,,,0.06,WUHU21636XXSP,2013-05-05 02:09:00,
2013-05-04 21:14:00,57.5,46.8,30.06,ESE,112,0.0,0.0,67,0.00,,,0.06,WUHU21636XXSP,2013-05-05 02:14:00,
2013-05-04 21:19:00,57.2,46.9,30.06,SE,135,0.0,0.0,68,0.00,,,0.06,WUHU21636XXSP,2013-05-05 02:19:00,
2013-05-04 21:24:00,57.2,46.9,30.06,SE,135,0.0,0.0,68,0.00,,,0.06,WUHU21636XXSP,2013-05-05 02:24:00,
2013-05-04 21:29:00,57.0,46.7,30.06,SSE,157,0.0,0.0,68,0.00,,,0.06,WUHU21636XXSP,2013-05-05 02:29:00,
2013-05-04 21:34:00,56.6,46.3,30.07,SSE,157,0.0,0.0,68,0.00,,,0.06,WUHU21636XXSP,2013-05-05 02:34:00,
2013-05-04 21:39:00,56.4,46.1,30.06,SSE,157,0.0,0.0,68,0.00,,,0.06,WUHU21636XXSP,2013-05-05 02:39:00,
2013-05-04 21:44:00,56.1,46.2,30.07,SSE,157,0.0,0.0,69,0.00,,,0.06,WUHU21636XXSP,2013-05-05 02:44:00,
2013-05-04 21:49:00,55.7,45.8,30.06,SSE,157,0.0,0.0,69,0.00,,,0.06,WUHU21636XXSP,2013-05-05 02:49:00,
2013-05-04 21:54:00,55.4,46.3,30.07,SSE,157,0.0,0.0,71,0.00,,,0.06,WUHU21636XXSP,2013-05-05 02:54:00,
2013-05-04 21:59:00,55.4,46.3,30.07,SSE,157,0.0,0.0,71,0.00,,,0.06,WUHU21636XXSP,2013-05-05 02:59:00,
2013-05-04 22:04:00,55.3,46.2,30.07,SSE,157,0.0,0.0,71,0.00,,,0.06,WUHU21636XXSP,2013-05-05 03:04:00,
2013-05-04 22:09:00,55.1,46.0,30.07,SSE,157,0.0,0.0,71,0.00,,,0.06,WUHU21636XXSP,2013-05-05 03:09:00,
2013-05-04 22:14:00,54.7,45.6,30.07,SSE,157,0.0,0.0,71,0.00,,,0.06,WUHU21636XXSP,2013-05-05 03:14:00,
2013-05-04 22:19:00,54.5,45.4,30.07,SSE,157,0.0,0.0,71,0.00,,,0.06,WUHU21636XXSP,2013-05-05 03:19:00,
2013-05-04 22:24:00,54.5,45.4,30.07,SSE,157,0.0,0.0,71,0.00,,,0.06,WUHU21636XXSP,2013-05-05 03:24:00,
2013-05-04 22:29:00,54.2,45.1,30.07,SSE,157,0.0,0.0,71,0.00,,,0.06,WUHU21636XXSP,2013-05-05 03:29:00,
2013-05-04 22:34:00,54.0,44.9,30.07,SSE,157,0.0,0.0,71,0.00,,,0.06,WUHU21636XXSP,2013-05-05 03:34:00,
2013-05-04 22:39:00,53.8,44.7,30.07,SSE,157,0.0,0.0,71,0.00,,,0.06,WUHU21636XXSP,2013-05-05 03:39:00,
2013-05-04 22:44:00,53.5,44.5,30.07,SSE,157,0.0,0.0,71,0.00,,,0.06,WUHU21636XXSP,2013-05-05 03:44:00,
2013-05-04 22:49:00,53.4,44.7,30.07,SSE,157,0.0,0.0,72,0.00,,,0.06,WUHU21636XXSP,2013-05-05 03:49:00,
2013-05-04 22:54:00,53.2,44.5,30.07,SSE,157,0.0,0.0,72,0.00,,,0.06,WUHU21636XXSP,2013-05-05 03:54:00,
2013-05-04 22:59:00,52.8,44.1,30.07,SSE,157,0.0,0.0,72,0.00,,,0.06,WUHU21636XXSP,2013-05-05 03:59:00,
2013-05-04 23:01:00,52.8,44.1,30.07,SSE,157,0.0,0.0,72,0.00,,,0.06,WUHU21636XXSP,2013-05-05 04:01:00,
2013-05-04 23:06:00,52.6,43.9,30.07,SSE,157,0.0,0.0,72,0.00,,,0.06,WUHU21636XXSP,2013-05-05 04:06:00,
2013-05-04 23:11:00,52.6,43.9,30.07,SSE,157,0.0,0.0,72,0.00,,,0.06,WUHU21636XXSP,2013-05-05 04:11:00,
2013-05-04 23:16:00,52.3,43.6,30.07,SSE,157,0.0,0.0,72,0.00,,,0.06,WUHU21636XXSP,2013-05-05 04:16:00,
2013-05-04 23:21:00,52.1,43.8,30.08,SSE,157,0.0,0.0,73,0.00,,,0.06,WUHU21636XXSP,2013-05-05 04:21:00,
2013-05-04 23:26:00,52.1,43.8,30.08,SSE,157,0.0,0.0,73,0.00,,,0.06,WUHU21636XXSP,2013-05-05 04:26:00,
2013-05-04 23:31:00,51.9,43.6,30.07,SSE,157,0.0,0.0,73,0.00,,,0.06,WUHU21636XXSP,2013-05-05 04:31:00,
2013-05-04 23:36:00,51.7,43.4,30.07,SSE,157,0.0,0.0,73,0.00,,,0.06,WUHU21636XXSP,2013-05-05 04:36:00,
2013-05-04 23:41:00,51.6,43.3,30.07,SSE,157,0.0,0.0,73,0.00,,,0.06,WUHU21636XXSP,2013-05-05 04:41:00,
2013-05-04 23:46:00,51.3,43.1,30.07,SSE,157,0.0,0.0,73,0.00,,,0.06,WUHU21636XXSP,2013-05-05 04:46:00,
2013-05-04 23:51:00,51.3,43.1,30.07,SSE,157,0.0,0.0,73,0.00,,,0.06,WUHU21636XXSP,2013-05-05 04:51:00,
2013-05-04 23:56:00,50.9,42.7,30.07,SSE,157,0.0,0.0,73,0.00,,,0.06,WUHU21636XXSP,2013-05-05 04:56:00,